This demonstration page uses our WeatherBlox Daily Observations layout. Learn more.

39.92423, -83.80882

Hourly Observations for April 18, 2017

Temp ( °F °C ) Dew Point ( °F °C ) Humidity (%) Winds ( mph kmh ) Pressure ( in mb ) Visibility ( mi km ) Precip ( " mm )
12:56 am 00:56 Clear 50 10 40 4.4 68 68 E 3 6 30.21 1023 10 16.0934 0 0
1:56 am 01:56 Clear 49 9.4 40 4.4 71 71 Calm 30.21 1023 10 16.0934 0 0
2:56 am 02:56 Clear 48 8.9 38 3.3 68 68 E 5 7 30.22 1023 10 16.0934 0 0
3:56 am 03:56 Clear 47 8.3 38 3.3 71 71 ENE 3 6 30.23 1024 10 16.0934 0 0
4:56 am 04:56 Clear 43 6.1 37 2.8 80 80 ENE 7 11 30.24 1024 10 16.0934 0 0
5:56 am 05:56 Clear 45 7.2 37 2.8 74 74 E 5 7 30.25 1024 10 16.0934 0 0
6:56 am 06:56 Sunny 44 6.7 36 2.2 73 73 E 7 11 30.26 1025 10 16.0934 0 0
7:56 am 07:56 Sunny 48 8.9 42 5.6 80 80 E 7 11 30.27 1025 10 16.0934 0 0
8:56 am 08:56 Sunny 54 12.2 43 6.1 67 67 E 10 17 30.28 1025 10 16.0934 0 0
9:56 am 09:56 Sunny 61 16.1 43 6.1 52 52 E 13 20 30.27 1025 10 16.0934 0 0
10:56 am 10:56 Sunny 66 18.9 42 5.6 42 42 SE 15 24 30.26 1025 10 16.0934 0 0
11:56 am 11:56 Sunny 69 20.6 36 2.2 30 30 ESE 21 33 30.24 1024 10 16.0934 0 0
12:56 pm 12:56 Sunny 72 22.2 36 2.2 27 27 SE 17 28 30.22 1023 10 16.0934 0 0
1:56 pm 13:56 Sunny 73 22.8 39 3.9 29 29 ESE 15 24 30.21 1023 8 12.87472 0 0
2:56 pm 14:56 Sunny 74 23.3 35 1.7 24 24 SE 9 15 30.19 1022 9 14.48406 0 0
3:56 pm 15:56 Sunny 75 23.9 36 2.2 24 24 SSE 9 15 30.16 1022 10 16.0934 0 0
4:56 pm 16:56 Mostly Sunny 76 24.4 37 2.8 24 24 SE 17 28 30.14 1021 9 14.48406 0 0
5:56 pm 17:56 Mostly Cloudy 75 23.9 41 5 29 29 SE 12 19 30.11 1020 9 14.48406 0 0
6:56 pm 18:56 Mostly Sunny 74 23.3 44 6.7 34 34 SSE 10 17 30.1 1019 10 16.0934 0 0
7:56 pm 19:56 Mostly Sunny 70 21.1 44 6.7 39 39 SE 9 15 30.09 1019 10 16.0934 0 0
8:56 pm 20:56 Cloudy 70 21.1 49 9.4 47 47 S 7 11 30.1 1019 10 16.0934 0 0
9:56 pm 21:56 Cloudy 68 20 53 11.7 59 59 S 10 17 30.1 1019 10 16.0934 0 0
10:56 pm 22:56 Cloudy 67 19.4 55 12.8 66 66 S 10 17 30.11 1020 10 16.0934 0 0
11:56 pm 23:56 Cloudy 67 19.4 57 13.9 71 71 S 9 15 30.11 1020 10 16.0934 0 0

Powered by AerisWeather